[[{"header":{"parameterUnit":"m.s-1","parameterCategory":1,"la1":30.2992,"la2":30.254,"lo1":-89.0895,"lo2":-89.0443,"dy":0.0025,"dx":0.0025,"nx":19,"ny":19,"refTime":"2026-05-09T21:00:00:Z","depth":0,"parameterNumber":2,"parameterNumberName":"U-component_of_WINDS"},"data":[0,0,0,2.4538,2.4541,2.4674,2.4675,2.4828,2.4829,0,0,0,0,0,0,0,0,0,0,0,2.4489,2.449,2.4538,2.4541,2.4674,2.4675,2.4828,2.4829,0,0,0,0,0,0,0,0,0,0,0,2.4489,2.4489,2.449,2.4541,2.4674,2.4675,2.4827,2.4733,0,0,0,0,0,0,0,0,0,0,2.4606,2.4552,2.4489,2.449,2.4542,2.4674,2.4675,2.4728,2.4739,2.4761,0,2.4778,0,2.4806,2.4838,2.4839,0,0,0,2.4547,2.4543,2.4588,2.4491,2.4543,2.4673,2.4616,2.4734,2.4746,2.4774,2.4781,2.4787,2.4809,2.4839,2.484,2.4948,2.4948,0,0,2.454,2.4507,2.458,2.4595,2.4574,2.4611,2.462,2.4741,2.4746,2.4781,2.4791,2.4811,2.484,2.4841,2.4948,2.4948,0,0,0,2.4515,2.4502,2.4544,2.4588,2.4614,2.4615,2.4625,2.4741,2.4757,2.4793,2.4813,2.4841,2.4843,2.4948,2.4948,2.4927,0,0,0,2.451,2.4487,2.4541,2.4522,2.4611,2.4679,2.4621,2.4749,2.4764,2.4812,2.4841,2.4844,2.4948,2.4948,2.4927,2.4921,0,0,0,2.4483,2.4484,2.45,2.452,2.4576,2.4678,2.4702,2.4753,2.4776,2.4839,2.4844,2.4948,2.4948,2.4927,2.4922,2.4941,0,0,0,2.4445,2.4477,2.4499,2.4544,2.4575,2.4664,2.4701,2.4769,2.482,2.4842,2.4948,2.4948,2.4927,2.4922,2.4941,2.4951,2.4952,0,0,2.4467,2.4479,2.4508,2.4532,2.4609,2.4646,2.472,2.4798,2.4833,2.4908,2.4911,2.4927,2.4922,2.4941,2.4971,2.4972,0,0,0,2.4504,2.4524,2.4552,2.4601,2.4662,2.4714,2.4784,2.4813,2.4879,2.4865,2.494,2.4938,2.4951,2.4957,2.4958,2.4971,2.495,2.495,2.495,2.4487,2.4533,2.4584,2.4647,2.4693,2.4767,2.4809,2.4861,2.4891,2.4908,2.493,2.4943,2.4949,2.495,2.4963,2.494,2.494,2.4939,2.4939,2.4524,2.456,2.4604,2.4669,2.4717,2.4772,2.4845,2.4865,2.4923,2.493,2.4943,2.4945,2.4949,2.4963,2.4938,2.4938,2.4939,2.4939,2.4939,2.4518,2.4543,2.458,2.4657,2.4711,2.4773,2.4828,2.487,2.4909,2.4922,2.495,2.4951,2.4956,2.4933,2.4933,2.4933,2.4933,2.4933,2.4933,2.4496,2.4539,2.458,2.4651,2.4689,2.4744,2.482,2.4859,2.4911,2.4937,2.4938,2.4966,2.4942,2.4934,2.4934,2.4934,2.4934,2.4934,2.4934,2.4515,2.4519,2.4583,2.4621,2.4708,2.476,2.4814,2.4889,2.4927,2.4952,2.498,2.4955,2.4969,2.4969,2.4963,2.497,2.497,2.497,2.497,2.4509,2.4522,2.4598,2.4657,2.472,2.4776,2.4847,2.4908,2.497,2.4996,2.5002,2.4998,2.4996,2.5011,2.501,2.5005,2.5023,2.5023,2.5023,2.4524,2.4545,2.4597,2.4661,2.4733,2.4794,2.4863,2.4928,2.5,2.5026,2.5018,2.5016,2.501,2.5006,2.503,2.5027,2.5019,0,0]},{"header":{"parameterUnit":"m.s-1","parameterCategory":1,"la1":30.2992,"la2":30.254,"lo1":-89.0895,"lo2":-89.0443,"dy":0.0025,"dx":0.0025,"nx":19,"ny":19,"refTime":"2026-05-09T21:00:00:Z","depth":0,"parameterNumber":3,"parameterNumberName":"V-component_of_WINDS"},"data":[0,0,0,-0.7765,-0.7761,-0.7517,-0.7515,-0.7244,-0.7242,0,0,0,0,0,0,0,0,0,0,0,-0.7864,-0.7863,-0.7765,-0.776,-0.7517,-0.7515,-0.7245,-0.7242,0,0,0,0,0,0,0,0,0,0,0,-0.7865,-0.7864,-0.7862,-0.7759,-0.7517,-0.7515,-0.7245,-0.7414,0,0,0,0,0,0,0,0,0,0,-0.7643,-0.7762,-0.7864,-0.7862,-0.7758,-0.7517,-0.7515,-0.7421,-0.7403,-0.7373,0,-0.7356,0,-0.7295,-0.7227,-0.7226,0,0,0,-0.7739,-0.7777,-0.7687,-0.7862,-0.7756,-0.7518,-0.7621,-0.7411,-0.7391,-0.735,-0.7351,-0.734,-0.7291,-0.7226,-0.7225,-0.7126,-0.7127,0,0,-0.7752,-0.7834,-0.7702,-0.7676,-0.7719,-0.7629,-0.7613,-0.7398,-0.7404,-0.735,-0.7333,-0.7286,-0.7224,-0.7222,-0.7126,-0.7127,0,0,0,-0.7805,-0.7844,-0.7759,-0.7688,-0.7642,-0.7622,-0.7604,-0.7413,-0.7379,-0.733,-0.7283,-0.7223,-0.722,-0.7125,-0.7126,-0.7231,0,0,0,-0.7812,-0.7875,-0.7766,-0.7813,-0.7647,-0.7525,-0.7626,-0.7394,-0.7367,-0.7285,-0.7223,-0.7218,-0.7124,-0.7126,-0.7226,-0.7265,0,0,0,-0.7871,-0.7881,-0.7856,-0.7818,-0.7717,-0.7526,-0.7479,-0.7386,-0.734,-0.7226,-0.7217,-0.7124,-0.7125,-0.7223,-0.7258,-0.7261,0,0,0,-0.7955,-0.7951,-0.7859,-0.7836,-0.772,-0.7596,-0.7479,-0.7382,-0.7297,-0.7222,-0.7125,-0.7126,-0.7221,-0.7254,-0.7258,-0.7276,-0.7292,0,0,-0.7995,-0.7959,-0.7939,-0.785,-0.7763,-0.7626,-0.7553,-0.7397,-0.731,-0.7192,-0.7189,-0.7228,-0.7258,-0.726,-0.7363,-0.7377,0,0,0,-0.7979,-0.7965,-0.7925,-0.785,-0.7734,-0.7636,-0.7483,-0.7426,-0.7322,-0.7268,-0.7229,-0.7244,-0.7242,-0.7247,-0.7258,-0.725,-0.7133,-0.7133,-0.7133,-0.8148,-0.8041,-0.8001,-0.7865,-0.7794,-0.7639,-0.757,-0.7465,-0.7376,-0.737,-0.7331,-0.7408,-0.7416,-0.7424,-0.7417,-0.7336,-0.7337,-0.7337,-0.7337,-0.8193,-0.8155,-0.8041,-0.7961,-0.7848,-0.7778,-0.7629,-0.7569,-0.7485,-0.7426,-0.7419,-0.736,-0.7443,-0.7431,-0.7344,-0.7343,-0.7342,-0.7341,-0.7341,-0.8287,-0.825,-0.8184,-0.8066,-0.7987,-0.785,-0.7777,-0.7676,-0.7581,-0.7574,-0.7522,-0.752,-0.7502,-0.7558,-0.7558,-0.7559,-0.7559,-0.7559,-0.7559,-0.8409,-0.8331,-0.8283,-0.8163,-0.8102,-0.801,-0.7857,-0.7794,-0.7697,-0.7629,-0.7628,-0.7539,-0.7473,-0.7456,-0.7562,-0.7562,-0.7561,-0.7561,-0.7561,-0.8486,-0.8454,-0.8379,-0.832,-0.817,-0.8098,-0.7974,-0.7854,-0.7787,-0.7754,-0.7668,-0.7638,-0.7591,-0.7581,-0.7566,-0.7693,-0.7693,-0.7693,-0.7693,-0.8562,-0.8532,-0.8434,-0.8345,-0.8246,-0.8127,-0.8044,-0.7927,-0.7799,-0.7751,-0.772,-0.7693,-0.7688,-0.7644,-0.7633,-0.7617,-0.7754,-0.7754,-0.7754,-0.8602,-0.8558,-0.8507,-0.8386,-0.8263,-0.8159,-0.8077,-0.7978,-0.7826,-0.7755,-0.7711,-0.7708,-0.7664,-0.7656,-0.7578,-0.7563,-0.7531,0,0]}]]